This is the latest recevied weather packets stored in our database for station/object DK4MDA-13. If no packets are shown the sender has not sent any weather packets the latest 1 day(s).
| Time | Temp. | Humidity | Pressure | Rain* | Wind** | Luminosity | Snow |
|---|---|---|---|---|---|---|---|
| 1777981929 | 18.89° C | 76% | 1009 hPa | 0 mm | 0.45 m/s, 0° | - | - |
| 1777981630 | 18.89° C | 74% | 1009.1 hPa | 0 mm | 0 m/s | - | - |
| 1777981329 | 18.89° C | 76% | 1009.1 hPa | 0 mm | 0 m/s | - | - |
| 1777981029 | 18.33° C | 74% | 1009.2 hPa | 0 mm | 0.45 m/s, 46° | - | - |
| 1777980729 | 18.89° C | 77% | 1009.3 hPa | 0 mm | 0.89 m/s, 46° | - | - |
| 1777980429 | 18.33° C | 77% | 1009.3 hPa | 0 mm | 0.89 m/s, 46° | - | - |
| 1777980129 | 18.33° C | 79% | 1009.2 hPa | 0 mm | 0.45 m/s, 21° | - | - |
| 1777979829 | 17.78° C | 80% | 1009.1 hPa | 0 mm | 0.45 m/s, 21° | - | - |
| 1777979529 | 17.78° C | 78% | 1009.3 hPa | 0 mm | 0.45 m/s, 318° | - | - |
| 1777979229 | 17.78° C | 78% | 1009.4 hPa | 0 mm | 0.89 m/s, 305° | - | - |
| 1777978929 | 17.78° C | 79% | 1009.4 hPa | 0 mm | 0.45 m/s, 4° | - | - |
| 1777978629 | 17.78° C | 81% | 1009.3 hPa | 0 mm | 0.89 m/s, 21° | - | - |
| 1777978329 | 17.22° C | 81% | 1009.4 hPa | 0 mm | 0.89 m/s, 26° | - | - |
| 1777978029 | 17.22° C | 82% | 1009.3 hPa | 0.25 mm | 0.89 m/s, 38° | - | - |
| 1777977729 | 17.22° C | 81% | 1009.4 hPa | 0.25 mm | 0.89 m/s, 351° | - | - |
| 1777977429 | 17.22° C | 82% | 1009.4 hPa | 0.25 mm | 1.34 m/s, 31° | - | - |
| 1777977129 | 17.22° C | 82% | 1009.5 hPa | 0.25 mm | 1.34 m/s, 359° | - | - |
| 1777976829 | 17.22° C | 84% | 1009.5 hPa | 0.25 mm | 0.89 m/s, 26° | - | - |
| 1777976529 | 17.22° C | 84% | 1009.6 hPa | 0.25 mm | 0.45 m/s, 26° | - | - |
| 1777976229 | 16.67° C | 84% | 1009.6 hPa | 0.25 mm | 0.89 m/s, 6° | - | - |
| 1777975929 | 16.67° C | 85% | 1009.8 hPa | 0.25 mm | 0.89 m/s, 26° | - | - |
| 1777975629 | 16.11° C | 88% | 1009.7 hPa | 0.25 mm | 0.89 m/s, 26° | - | - |
| 1777975329 | 16.11° C | 88% | 1009.7 hPa | 0.25 mm | 1.34 m/s, 26° | - | - |
| 1777975029 | 16.11° C | 88% | 1009.7 hPa | 0.25 mm | 1.34 m/s, 21° | - | - |
| 1777974729 | 16.11° C | 89% | 1009.7 hPa | 0.25 mm | 0.89 m/s, 26° | - | - |
* Rain latest hour (hover to see other rain measurements)
** Current wind speed in m/s (hover to see current wind gust speed)